sat.trackr.live / text

‹ back to catalog

STARLINK-3937

NORAD 52542 · 2022-051K

PAYLOAD ACTIVE UNKNOWN

§ Identity

Operator
Country
US
Launch date
2022-05-13
Launch site
AFWTR
Launch vehicle
Mass (kg)
RCS (m²)

Purposes: comms

External: N2YO · Heavens-Above · Gunter

§ Orbital elements

Epoch: 2026-09-19T21:27:56.720736Z

Period
93.85 min
Inclination
53.1603°
Eccentricity
0.0001255
Mean motion
15.34376804 rev/d
Perigee alt
461.9 km
Apogee alt
463.6 km
Semi-major
6,840.9 km
B*
1.0842e-4
RAAN
320.4859°
Arg perigee
93.1248°
Mean anomaly
266.9898°
Rev number
24,099

§ Raw data

STARLINK-39371 52542U 22051K   26262.89440649  .00003286  00000+0  10842-3 0  99962 52542  53.1603 320.4859 0001255  93.1248 266.9898 15.34376804240992

JSON: /api/v1/satellites/52542 · /tle

For live sub-satellite position, see the globe view (requires WebGL).

§ Visibility from observer

Set your observer location to see the next 7 days of passes ≥ 10°. The values pass through the URL so the page stays shareable.

No JS? Fill the form by hand. The geolocation button needs JavaScript.